Time,TemperatureF,DewpointF,PressureIn,WindDirection,WindDirectionDegrees,WindSpeedMPH,WindSpeedGustMPH,Humidity,HourlyPrecipIn,Conditions,Clouds,dailyrainin,SoftwareType,DateUTC
2013-02-16 00:02:00,30.0,29.0,30.00,SW,222,0.0,0.0,96,0.00,,,0.00,,2013-02-16 05:02:00,
2013-02-16 00:12:00,30.0,29.0,30.00,SW,222,0.0,0.0,96,0.00,,,0.00,,2013-02-16 05:12:00,
2013-02-16 00:22:00,30.0,29.0,30.00,SW,222,0.0,0.0,96,0.00,,,0.00,,2013-02-16 05:22:00,
2013-02-16 00:32:00,30.0,29.0,30.00,SW,222,0.0,0.0,96,0.00,,,0.00,,2013-02-16 05:32:00,
2013-02-16 00:42:00,30.0,29.0,30.00,SW,222,0.0,0.0,96,0.00,,,0.00,,2013-02-16 05:42:00,
2013-02-16 00:52:00,30.0,29.0,29.99,SW,222,0.0,0.0,96,0.00,,,0.00,,2013-02-16 05:52:00,
2013-02-16 01:02:00,30.0,29.0,29.99,ESE,111,0.0,0.0,96,0.00,,,0.00,,2013-02-16 06:02:00,
2013-02-16 01:11:00,30.0,29.0,29.99,ESE,111,0.0,0.0,96,0.00,,,0.00,,2013-02-16 06:11:00,
2013-02-16 01:21:00,30.0,29.0,29.99,ESE,108,0.0,0.0,96,0.00,,,0.00,,2013-02-16 06:21:00,
2013-02-16 01:32:00,30.0,29.0,29.99,ESE,108,0.0,0.0,96,0.00,,,0.00,,2013-02-16 06:32:00,
2013-02-16 01:42:00,30.0,29.0,29.99,ESE,108,0.0,0.0,96,0.00,,,0.00,,2013-02-16 06:42:00,
2013-02-16 01:52:00,30.0,29.0,29.98,ESE,108,0.0,0.0,96,0.00,,,0.00,,2013-02-16 06:52:00,
2013-02-16 02:02:00,31.0,30.0,29.98,ESE,108,0.0,0.0,97,0.00,,,0.00,,2013-02-16 07:02:00,
2013-02-16 02:11:00,31.0,30.0,29.98,ESE,108,0.0,0.0,97,0.00,,,0.00,,2013-02-16 07:11:00,
2013-02-16 02:21:00,31.0,30.0,29.98,ESE,108,0.0,0.0,97,0.00,,,0.00,,2013-02-16 07:21:00,
2013-02-16 02:32:00,31.0,30.0,29.98,ESE,108,0.0,0.0,96,0.00,,,0.00,,2013-02-16 07:32:00,
2013-02-16 02:42:00,31.0,30.0,29.98,ESE,108,0.0,0.0,96,0.00,,,0.00,,2013-02-16 07:42:00,
2013-02-16 02:52:00,30.0,29.0,29.98,SW,231,3.0,0.0,96,0.00,,,0.00,,2013-02-16 07:52:00,
2013-02-16 03:01:00,31.0,30.0,29.97,WSW,243,0.0,0.0,97,0.00,,,0.00,,2013-02-16 08:01:00,
2013-02-16 03:11:00,31.0,30.0,29.97,WSW,243,0.0,0.0,97,0.00,,,0.00,,2013-02-16 08:11:00,
2013-02-16 03:21:00,30.0,29.0,29.96,WSW,243,0.0,0.0,97,0.00,,,0.00,,2013-02-16 08:21:00,
2013-02-16 03:32:00,30.0,29.0,29.96,WSW,243,0.0,0.0,97,0.00,,,0.00,,2013-02-16 08:32:00,
2013-02-16 03:42:00,30.0,29.0,29.96,WSW,243,0.0,0.0,97,0.00,,,0.00,,2013-02-16 08:42:00,
2013-02-16 03:52:00,30.0,29.0,29.96,WSW,243,0.0,0.0,97,0.00,,,0.00,,2013-02-16 08:52:00,
2013-02-16 04:01:00,30.0,29.0,29.96,WSW,243,0.0,0.0,97,0.00,,,0.00,,2013-02-16 09:01:00,
2013-02-16 04:11:00,30.0,29.0,29.96,WSW,243,0.0,0.0,97,0.00,,,0.00,,2013-02-16 09:11:00,
2013-02-16 04:21:00,33.0,32.0,29.96,WSW,247,0.0,0.0,97,0.00,,,0.00,,2013-02-16 09:21:00,
2013-02-16 04:32:00,34.0,33.0,29.96,NW,312,0.0,3.0,97,0.01,,,0.01,,2013-02-16 09:32:00,
2013-02-16 04:42:00,34.0,33.0,29.96,NW,312,0.0,3.0,97,0.01,,,0.01,,2013-02-16 09:42:00,
2013-02-16 04:51:00,34.0,33.0,29.96,NNW,330,3.0,3.0,97,0.01,,,0.01,,2013-02-16 09:51:00,
2013-02-16 05:01:00,34.0,33.0,29.96,NW,319,4.0,4.0,97,0.01,,,0.01,,2013-02-16 10:01:00,
2013-02-16 05:11:00,34.0,33.0,29.95,NNE,12,6.0,6.0,96,0.01,,,0.01,,2013-02-16 10:11:00,
2013-02-16 05:21:00,34.0,33.0,29.95,NNE,12,6.0,6.0,96,0.01,,,0.01,,2013-02-16 10:21:00,
2013-02-16 05:32:00,34.0,32.0,29.95,North,2,1.0,4.0,94,0.00,,,0.01,,2013-02-16 10:32:00,
2013-02-16 05:42:00,34.0,32.0,29.95,North,2,1.0,4.0,94,0.00,,,0.01,,2013-02-16 10:42:00,
2013-02-16 05:52:00,34.0,32.0,29.95,NW,320,4.0,4.0,92,0.00,,,0.01,,2013-02-16 10:52:00,
2013-02-16 06:02:00,34.0,32.0,29.95,NW,320,4.0,4.0,92,0.00,,,0.01,,2013-02-16 11:02:00,
2013-02-16 06:11:00,34.0,32.0,29.95,NW,320,4.0,4.0,92,0.00,,,0.01,,2013-02-16 11:11:00,
2013-02-16 06:22:00,34.0,31.0,29.96,North,7,4.0,4.0,89,0.00,,,0.01,,2013-02-16 11:22:00,
2013-02-16 06:32:00,34.0,31.0,29.96,NNE,13,0.0,10.0,88,0.00,,,0.01,,2013-02-16 11:32:00,
2013-02-16 06:42:00,34.0,31.0,29.96,NNE,13,0.0,10.0,88,0.00,,,0.01,,2013-02-16 11:42:00,
2013-02-16 06:52:00,34.0,31.0,29.96,NNE,13,0.0,10.0,88,0.00,,,0.01,,2013-02-16 11:52:00,
2013-02-16 07:02:00,34.0,31.0,29.96,NNE,33,5.0,10.0,87,0.00,,,0.01,,2013-02-16 12:02:00,
2013-02-16 07:12:00,34.0,31.0,29.96,NNE,33,5.0,10.0,87,0.00,,,0.01,,2013-02-16 12:12:00,
2013-02-16 07:22:00,34.0,31.0,29.96,North,9,2.0,10.0,87,0.00,,,0.01,,2013-02-16 12:22:00,
2013-02-16 07:32:00,34.0,31.0,0.00,North,352,6.0,7.0,87,0.00,,,0.01,,2013-02-16 12:32:00,
2013-02-16 07:42:00,34.0,31.0,0.00,North,352,6.0,7.0,87,0.00,,,0.01,,2013-02-16 12:42:00,
2013-02-16 07:52:00,34.0,31.0,0.00,North,352,6.0,7.0,87,0.00,,,0.01,,2013-02-16 12:52:00,
2013-02-16 08:02:00,34.0,31.0,0.00,North,352,6.0,7.0,87,0.00,,,0.01,,2013-02-16 13:02:00,
2013-02-16 08:12:00,34.0,31.0,29.98,North,352,6.0,7.0,88,0.00,,,0.01,,2013-02-16 13:12:00,
2013-02-16 08:22:00,34.0,31.0,29.98,North,352,6.0,7.0,88,0.00,,,0.01,,2013-02-16 13:22:00,
2013-02-16 08:32:00,34.0,31.0,29.98,NNE,32,2.0,6.0,89,0.00,,,0.01,,2013-02-16 13:32:00,
2013-02-16 08:42:00,34.0,31.0,29.98,NNE,32,2.0,6.0,89,0.00,,,0.01,,2013-02-16 13:42:00,
2013-02-16 08:52:00,34.0,31.0,29.98,NNE,32,2.0,6.0,89,0.00,,,0.01,,2013-02-16 13:52:00,
2013-02-16 09:01:00,34.0,31.0,29.97,NNW,335,4.0,6.0,90,0.00,,,0.01,,2013-02-16 14:01:00,
2013-02-16 09:11:00,34.0,31.0,29.97,NNW,335,4.0,6.0,90,0.00,,,0.01,,2013-02-16 14:11:00,
2013-02-16 09:21:00,34.0,31.0,29.97,NNW,335,4.0,6.0,90,0.00,,,0.01,,2013-02-16 14:21:00,
2013-02-16 09:32:00,34.0,32.0,29.96,NE,35,5.0,11.0,92,0.01,,,0.02,,2013-02-16 14:32:00,
2013-02-16 09:42:00,34.0,32.0,29.96,NE,35,5.0,11.0,92,0.01,,,0.02,,2013-02-16 14:42:00,
2013-02-16 09:52:00,34.0,32.0,29.97,NNE,31,5.0,11.0,91,0.01,,,0.02,,2013-02-16 14:52:00,
2013-02-16 10:02:00,34.0,32.0,29.97,NNE,31,5.0,11.0,91,0.01,,,0.02,,2013-02-16 15:02:00,
2013-02-16 10:11:00,34.0,32.0,29.97,NNE,31,5.0,11.0,91,0.01,,,0.02,,2013-02-16 15:11:00,
2013-02-16 10:22:00,35.0,32.0,29.96,North,2,0.0,11.0,89,0.01,,,0.02,,2013-02-16 15:22:00,
2013-02-16 10:32:00,35.0,32.0,29.96,North,2,4.0,6.0,88,0.00,,,0.02,,2013-02-16 15:32:00,
2013-02-16 10:42:00,35.0,32.0,29.96,North,2,4.0,6.0,88,0.00,,,0.02,,2013-02-16 15:42:00,
2013-02-16 10:52:00,36.0,33.0,29.96,NNE,29,6.0,6.0,87,0.00,,,0.02,,2013-02-16 15:52:00,
2013-02-16 11:01:00,36.0,33.0,29.96,NNE,29,6.0,6.0,87,0.00,,,0.02,,2013-02-16 16:01:00,
2013-02-16 11:11:00,36.0,33.0,29.96,NNE,29,6.0,6.0,87,0.00,,,0.02,,2013-02-16 16:11:00,
2013-02-16 11:21:00,36.0,33.0,29.96,NNE,29,6.0,6.0,87,0.00,,,0.02,,2013-02-16 16:21:00,
2013-02-16 12:32:00,37.0,31.0,29.93,NNE,23,0.0,6.0,78,0.00,,,0.02,,2013-02-16 17:32:00,
2013-02-16 12:42:00,37.0,31.0,29.93,NNE,23,0.0,6.0,78,0.00,,,0.02,,2013-02-16 17:42:00,
2013-02-16 12:52:00,37.0,30.0,29.93,NNW,339,3.0,6.0,77,0.00,,,0.02,,2013-02-16 17:52:00,
2013-02-16 13:02:00,37.0,30.0,29.93,NNW,339,3.0,6.0,77,0.00,,,0.02,,2013-02-16 18:02:00,
2013-02-16 13:11:00,37.0,30.0,29.92,NNW,343,0.0,6.0,77,0.00,,,0.02,,2013-02-16 18:11:00,
2013-02-16 13:21:00,37.0,30.0,29.92,NNW,343,0.0,6.0,77,0.00,,,0.02,,2013-02-16 18:21:00,
2013-02-16 13:33:00,37.0,30.0,29.91,NNW,327,0.0,8.0,77,0.00,,,0.02,,2013-02-16 18:33:00,
2013-02-16 13:42:00,37.0,30.0,29.91,NNW,327,0.0,8.0,77,0.00,,,0.02,,2013-02-16 18:42:00,
2013-02-16 13:52:00,36.0,30.0,29.90,NW,304,5.0,8.0,79,0.00,,,0.02,,2013-02-16 18:52:00,
2013-02-16 14:02:00,36.0,30.0,29.90,NW,304,5.0,8.0,79,0.00,,,0.02,,2013-02-16 19:02:00,
2013-02-16 14:11:00,36.0,30.0,29.90,NW,304,5.0,8.0,79,0.00,,,0.02,,2013-02-16 19:11:00,
2013-02-16 14:21:00,36.0,32.0,29.89,North,357,1.0,8.0,84,0.00,,,0.02,,2013-02-16 19:21:00,
2013-02-16 14:32:00,35.0,31.0,29.90,WNW,294,8.0,0.0,86,0.00,,,0.02,,2013-02-16 19:32:00,
2013-02-16 14:42:00,35.0,31.0,29.90,WNW,294,8.0,0.0,86,0.00,,,0.02,,2013-02-16 19:42:00,
2013-02-16 14:52:00,35.0,32.0,29.89,NW,326,4.0,0.0,87,0.00,,,0.02,,2013-02-16 19:52:00,
2013-02-16 15:01:00,35.0,32.0,29.89,NW,311,2.0,0.0,89,0.00,,,0.02,,2013-02-16 20:01:00,
2013-02-16 15:11:00,35.0,32.0,29.89,NW,311,2.0,0.0,89,0.00,,,0.02,,2013-02-16 20:11:00,
2013-02-16 15:21:00,35.0,32.0,29.89,NW,311,2.0,0.0,89,0.00,,,0.02,,2013-02-16 20:21:00,
2013-02-16 15:32:00,35.0,32.0,29.88,WNW,301,0.0,8.0,89,0.00,,,0.02,,2013-02-16 20:32:00,
2013-02-16 15:42:00,35.0,32.0,29.87,NW,319,5.0,8.0,89,0.00,,,0.02,,2013-02-16 20:42:00,
2013-02-16 15:52:00,35.0,32.0,29.87,NW,319,5.0,8.0,89,0.00,,,0.02,,2013-02-16 20:52:00,
2013-02-16 16:02:00,35.0,32.0,29.87,NW,319,5.0,8.0,89,0.00,,,0.02,,2013-02-16 21:02:00,
2013-02-16 16:11:00,35.0,32.0,29.87,NW,319,5.0,8.0,89,0.00,,,0.02,,2013-02-16 21:11:00,
2013-02-16 16:21:00,35.0,32.0,29.87,NW,319,5.0,8.0,89,0.00,,,0.02,,2013-02-16 21:21:00,
2013-02-16 16:52:00,34.0,32.0,29.86,North,352,5.0,0.0,91,0.00,,,0.02,,2013-02-16 21:52:00,
2013-02-16 17:01:00,34.0,32.0,29.86,North,352,5.0,0.0,91,0.00,,,0.02,,2013-02-16 22:01:00,
2013-02-16 17:11:00,34.0,32.0,29.86,North,352,5.0,0.0,91,0.00,,,0.02,,2013-02-16 22:11:00,
2013-02-16 17:21:00,33.0,31.0,29.87,NNW,334,0.0,0.0,92,0.00,,,0.02,,2013-02-16 22:21:00,
2013-02-16 17:32:00,33.0,31.0,29.87,NNW,334,0.0,0.0,92,0.00,,,0.02,,2013-02-16 22:32:00,
2013-02-16 17:42:00,33.0,31.0,29.87,NNW,334,0.0,0.0,92,0.00,,,0.02,,2013-02-16 22:42:00,
2013-02-16 17:51:00,33.0,31.0,29.88,NW,322,0.0,3.0,93,0.00,,,0.02,,2013-02-16 22:51:00,
2013-02-16 18:02:00,33.0,31.0,29.88,NW,318,0.0,3.0,94,0.00,,,0.02,,2013-02-16 23:02:00,
2013-02-16 18:11:00,33.0,31.0,29.88,NW,318,0.0,3.0,94,0.00,,,0.02,,2013-02-16 23:11:00,
2013-02-16 18:21:00,33.0,31.0,29.88,NW,318,0.0,3.0,94,0.00,,,0.02,,2013-02-16 23:21:00,
2013-02-16 18:32:00,32.0,31.0,29.87,NNE,18,0.0,0.0,95,0.01,,,0.03,,2013-02-16 23:32:00,
2013-02-16 18:42:00,32.0,31.0,29.87,NNE,18,0.0,0.0,95,0.01,,,0.03,,2013-02-16 23:42:00,
2013-02-16 18:52:00,32.0,31.0,29.86,NNE,30,0.0,0.0,95,0.01,,,0.03,,2013-02-16 23:52:00,
2013-02-16 19:02:00,32.0,31.0,29.86,NNE,23,0.0,0.0,95,0.01,,,0.03,,2013-02-17 00:02:00,
2013-02-16 19:12:00,32.0,31.0,29.86,NNE,23,0.0,0.0,95,0.01,,,0.03,,2013-02-17 00:12:00,
2013-02-16 19:22:00,32.0,31.0,29.85,North,2,2.0,0.0,95,0.01,,,0.03,,2013-02-17 00:22:00,
2013-02-16 19:32:00,32.0,31.0,29.85,North,2,2.0,0.0,95,0.01,,,0.03,,2013-02-17 00:32:00,
2013-02-16 19:42:00,32.0,31.0,29.85,North,2,2.0,0.0,95,0.01,,,0.03,,2013-02-17 00:42:00,
2013-02-16 19:52:00,32.0,31.0,29.85,NNW,335,0.0,0.0,95,0.00,,,0.03,,2013-02-17 00:52:00,
2013-02-16 20:01:00,32.0,31.0,29.84,NNW,337,0.0,0.0,95,0.00,,,0.03,,2013-02-17 01:01:00,
2013-02-16 20:11:00,32.0,31.0,29.84,NNW,337,0.0,0.0,95,0.00,,,0.03,,2013-02-17 01:11:00,
2013-02-16 20:21:00,32.0,31.0,29.84,North,352,3.0,0.0,95,0.00,,,0.03,,2013-02-17 01:21:00,
2013-02-16 20:32:00,33.0,32.0,29.84,NNW,342,0.0,0.0,95,0.00,,,0.03,,2013-02-17 01:32:00,
2013-02-16 20:41:00,33.0,32.0,29.84,NNW,342,0.0,0.0,95,0.00,,,0.03,,2013-02-17 01:41:00,
2013-02-16 20:52:00,33.0,32.0,29.83,NNE,27,3.0,0.0,95,0.00,,,0.03,,2013-02-17 01:52:00,
2013-02-16 21:01:00,33.0,32.0,29.83,NNE,27,3.0,0.0,95,0.00,,,0.03,,2013-02-17 02:01:00,
2013-02-16 21:11:00,33.0,32.0,29.83,NNE,27,3.0,0.0,95,0.00,,,0.03,,2013-02-17 02:11:00,
2013-02-16 21:21:00,32.0,31.0,29.82,NNE,23,0.0,0.0,95,0.00,,,0.03,,2013-02-17 02:21:00,
2013-02-16 21:32:00,32.0,31.0,29.81,NNE,18,2.0,7.0,95,0.00,,,0.03,,2013-02-17 02:32:00,
2013-02-16 21:42:00,32.0,31.0,29.81,NNE,18,2.0,7.0,95,0.00,,,0.03,,2013-02-17 02:42:00,
2013-02-16 21:52:00,32.0,31.0,29.81,NNE,18,2.0,7.0,95,0.00,,,0.03,,2013-02-17 02:52:00,
2013-02-16 22:02:00,32.0,31.0,29.81,NNE,18,2.0,7.0,95,0.00,,,0.03,,2013-02-17 03:02:00,
2013-02-16 22:21:00,32.0,31.0,29.78,NNE,33,1.0,7.0,95,0.00,,,0.03,,2013-02-17 03:21:00,
2013-02-16 22:32:00,31.0,29.0,29.78,NNE,28,2.0,8.0,94,0.00,,,0.03,,2013-02-17 03:32:00,
2013-02-16 22:42:00,31.0,29.0,29.78,NNE,28,2.0,8.0,94,0.00,,,0.03,,2013-02-17 03:42:00,
2013-02-16 22:51:00,31.0,29.0,29.78,NNE,28,2.0,8.0,94,0.00,,,0.03,,2013-02-17 03:51:00,
2013-02-16 23:01:00,31.0,29.0,29.78,NNE,28,2.0,8.0,94,0.00,,,0.03,,2013-02-17 04:01:00,
2013-02-16 23:11:00,31.0,29.0,29.75,NNW,341,0.0,8.0,93,0.00,,,0.03,,2013-02-17 04:11:00,
2013-02-16 23:21:00,31.0,29.0,29.75,NNW,341,0.0,8.0,93,0.00,,,0.03,,2013-02-17 04:21:00,
2013-02-16 23:32:00,30.0,27.0,29.74,North,2,0.0,3.0,90,0.00,,,0.03,,2013-02-17 04:32:00,
2013-02-16 23:42:00,30.0,27.0,29.74,North,2,0.0,3.0,90,0.00,,,0.03,,2013-02-17 04:42:00,
2013-02-16 23:52:00,30.0,27.0,29.72,NW,319,4.0,4.0,89,0.00,,,0.03,,2013-02-17 04:52:00,